GFSNE_925_spd_000.txt.gz
Wind_Speed
27 28 29 27 27 28 29 30 23 15 13 19 21 20 20 20 29 31 29 29 35 33 35 39 39 50 55 57 56 56 54 52 52 50 48 47 45 44
27 27 28 27 29 28 28 29 27 25 14 24 25 24 24 28 20 23 26 26 27 31 36 30 35 40 53 61 61 60 58 56 54 52 52 50 48 45
30 31 32 32 32 31 30 30 30 29 14 27 27 27 24 20 23 22 26 27 24 24 23 24 22 34 41 59 67 64 62 60 59 58 57 55 52 47
30 29 30 29 30 29 28 29 30 31 27 20 26 25 28 27 28 31 26 30 29 29 31 33 31 24 28 35 62 68 66 63 62 62 64 62 55 52
29 29 29 30 31 31 32 31 30 29 28 26 30 31 30 26 25 27 33 29 28 23 28 30 31 34 25 30 33 66 68 65 65 62 62 61 62 59
26 26 26 26 25 26 28 29 27 26 24 23 26 28 27 28 27 26 28 34 33 30 28 30 31 33 39 29 21 44 59 65 67 66 62 59 57 56
26 27 29 31 32 32 30 31 29 28 25 20 21 23 22 22 21 25 25 27 30 22 26 29 31 29 32 35 36 30 49 61 66 67 69 67 59 54
26 28 32 34 35 37 37 39 38 34 31 26 23 18 16 20 24 26 26 17 6 20 21 25 26 27 27 30 32 33 34 57 64 68 66 63 62 62
29 30 31 31 32 33 34 36 38 40 42 36 34 32 27 22 21 17 12 11 15 15 13 12 17 19 19 21 29 27 29 52 58 64 68 66 68 64
31 31 32 33 34 34 34 33 32 31 35 39 39 38 39 34 32 23 9 20 15 15 15 5 7 4 8 10 18 24 25 46 54 66 70 71 65 60
34 33 33 34 35 35 35 33 33 34 33 33 35 36 36 37 38 33 26 11 4 5 14 7 6 2 2 2 6 14 26 37 53 57 70 70 63 55
25 24 27 30 38 37 35 32 29 29 28 31 32 32 35 38 38 37 30 22 14 4 14 9 9 6 2 4 6 10 23 30 34 62 68 67 60 52
27 28 26 27 27 30 35 35 33 31 28 30 28 28 27 29 33 34 33 30 23 17 11 18 11 9 4 2 7 16 24 28 32 26 41 56 53 54
31 28 26 27 28 26 25 26 27 28 25 25 23 23 23 22 29 28 27 34 33 30 19 28 11 18 10 3 3 14 25 28 36 36 33 39 38 37
28 26 26 26 25 28 30 33 36 31 28 24 23 20 22 25 24 25 19 29 24 24 20 28 21 24 20 13 13 14 19 21 27 33 32 28 29 28
24 25 24 25 24 23 25 30 31 29 28 25 20 20 19 20 20 19 19 20 18 10 16 18 15 16 13 15 22 21 21 12 30 30 29 27 26 26
20 18 16 14 14 17 24 9 5 7 16 18 17 15 14 19 16 15 22 19 12 13 13 12 12 14 13 23 14 19 19 22 26 32 33 27 27 28
17 14 15 17 15 16 20 15 5 8 10 13 13 11 11 9 19 19 22 18 17 16 18 23 25 22 17 10 17 22 19 22 24 30 29 23 21 28
15 16 17 16 17 18 19 20 18 8 6 8 10 6 18 16 16 15 13 15 15 20 16 20 20 18 6 3 5 16 20 22 24 23 25 21 20 25
17 16 16 20 17 18 20 20 20 21 20 19 12 17 16 16 13 11 16 15 16 15 17 19 16 12 10 6 5 7 19 24 26 22 18 17 15 20
20 22 21 19 21 21 20 22 21 21 21 18 20 18 11 9 12 13 14 19 20 17 15 11 12 12 21 21 13 9 19 18 26 25 23 20 15 15
22 22 23 23 20 21 22 22 22 23 20 20 21 21 19 18 17 17 17 16 15 18 20 21 20 22 18 15 14 13 15 19 19 16 16 15 11 6
24 24 24 24 25 23 21 21 23 23 23 20 19 19 20 23 21 21 22 22 21 20 18 17 16 18 17 19 20 15 17 18 16 18 13 8 8 7

GFSNE_925_spd_006.txt.gz
Wind_Speed
28 30 31 31 29 30 29 26 16 11 10 17 18 18 19 23 25 22 25 24 23 14 11 12 13 14 13 18 18 18 16 56 59 60 59 55 53 53
29 29 30 31 31 32 32 30 26 19 11 21 22 23 24 28 33 31 30 27 23 15 12 14 16 16 15 13 14 17 15 26 35 61 60 55 56 55
26 29 30 30 30 27 27 28 28 23 13 20 23 22 23 25 29 32 31 29 26 24 22 22 21 17 16 19 19 18 18 18 22 35 61 58 62 59
30 30 31 28 28 27 25 25 24 23 22 15 20 20 20 17 16 20 23 26 28 29 27 27 24 18 21 22 21 20 20 18 19 23 43 64 62 63
29 28 25 21 21 20 16 18 20 21 24 18 15 17 20 21 21 22 22 25 27 29 30 28 25 26 25 24 25 25 23 25 22 22 21 49 63 62
17 19 22 23 24 25 25 24 21 21 21 21 22 19 18 19 20 17 21 26 30 31 34 32 30 26 26 26 25 26 24 24 25 22 24 25 53 68
27 29 30 29 26 26 25 26 25 26 27 26 26 24 24 21 19 20 17 20 26 27 29 30 26 25 26 25 26 27 29 26 24 23 26 25 35 61
29 27 29 30 32 33 32 30 29 27 25 23 21 19 22 20 21 22 21 12 7 10 12 18 17 20 21 23 25 26 26 26 26 25 25 26 24 39
28 28 28 26 27 29 31 31 31 32 32 31 27 26 25 21 19 21 22 18 17 20 14 12 17 18 18 19 20 23 27 28 28 28 28 28 29 29
29 29 28 30 31 29 28 28 27 30 30 29 30 31 31 28 26 26 26 27 27 24 22 11 15 21 19 19 21 24 25 27 28 28 29 32 31 34
27 26 26 28 30 30 30 28 31 30 31 30 33 34 31 29 27 27 22 19 11 21 23 19 18 14 17 24 21 24 24 29 30 28 27 31 34 34
26 27 27 30 32 33 32 30 28 29 27 27 26 27 31 34 34 33 26 19 15 7 22 21 12 10 6 10 13 15 18 22 28 30 28 30 34 33
26 27 27 29 29 31 29 27 28 30 26 26 25 25 25 27 28 29 32 29 20 16 16 20 16 16 10 5 10 16 20 26 28 28 26 26 33 35
27 26 27 26 25 22 24 28 27 29 27 25 24 22 23 25 26 28 29 31 31 29 22 23 21 19 8 4 4 12 21 23 23 23 22 28 28 29
20 21 20 20 19 16 15 15 18 20 21 21 22 23 22 24 25 26 26 26 27 28 30 31 30 26 28 21 10 6 7 11 14 13 10 14 19 24
18 20 17 19 16 15 17 15 14 16 20 21 22 24 20 19 20 26 23 20 19 21 26 32 34 31 23 25 20 11 9 5 7 8 6 6 14 23
13 20 20 21 20 20 20 20 20 17 16 15 13 14 16 17 18 20 20 18 18 14 13 20 29 29 26 21 12 13 12 10 8 8 7 9 11 14
15 12 16 17 17 17 19 20 20 21 20 11 6 9 12 13 14 17 18 14 13 11 10 17 23 16 10 5 8 10 11 10 10 12 12 10 8 10
13 15 15 17 18 18 18 18 18 23 19 14 6 5 10 13 13 13 12 12 8 11 14 16 18 8 2 2 2 5 9 11 14 12 13 6 7 10
17 15 16 18 17 18 20 19 21 23 24 21 15 12 7 5 7 9 11 9 11 7 8 10 8 7 3 5 4 3 7 13 15 12 15 13 13 12
16 16 18 19 20 19 20 22 23 22 21 21 20 16 13 9 9 7 7 8 11 8 6 5 2 6 6 12 7 6 8 7 12 17 19 15 9 8
17 16 17 17 19 19 20 21 22 22 22 21 19 18 15 11 8 7 8 9 8 8 6 9 9 12 7 4 5 9 15 23 18 14 14 7 8 4
16 16 17 18 18 19 19 20 20 21 20 18 19 18 16 16 12 11 11 10 11 13 13 12 9 7 6 12 14 9 15 15 17 21 19 15 4 4

GFSNE_925_spd_009.txt.gz
Wind_Speed
18 19 19 21 21 21 23 20 12 10 10 17 20 21 23 24 25 27 28 24 24 22 16 11 6 8 12 10 8 14 13 13 13 49 52 55 53 53
18 19 20 23 24 23 23 23 21 18 10 14 18 19 18 19 20 22 27 27 25 22 19 16 9 7 13 11 6 10 10 13 13 8 39 54 54 56
22 23 24 24 25 25 24 24 24 20 11 19 21 22 22 22 24 24 23 23 20 19 17 19 20 19 16 13 8 8 10 10 9 15 16 26 57 55
22 22 24 25 25 25 25 24 25 25 19 13 13 15 17 15 18 23 25 25 24 23 21 19 19 22 18 13 13 12 13 13 11 10 13 21 16 53
19 19 18 17 19 19 18 19 21 23 23 19 17 16 20 23 23 23 23 25 29 28 27 23 23 24 23 24 18 15 16 16 15 13 12 14 19 26
16 20 22 24 27 28 28 27 26 25 21 19 20 18 20 23 25 24 23 24 26 30 31 31 28 29 26 24 22 17 18 17 14 15 18 16 17 17
26 30 30 30 26 27 26 26 25 24 23 22 22 21 20 18 21 24 25 24 28 28 30 32 28 28 27 23 22 22 21 21 20 17 19 21 19 21
28 28 28 27 28 27 26 27 28 26 24 20 19 16 17 17 22 24 23 18 10 24 25 26 24 22 20 19 21 22 19 18 16 17 18 19 24 24
26 26 26 24 24 27 28 27 28 28 30 28 24 23 22 21 20 18 22 19 19 18 14 14 21 20 19 14 14 15 16 17 18 18 18 20 23 27
27 26 26 29 27 26 26 27 27 27 27 28 27 30 29 29 27 25 26 27 28 26 22 15 23 27 25 24 16 16 18 20 19 18 20 20 21 25
27 25 25 27 30 28 30 28 28 28 27 28 30 30 29 29 27 24 22 18 10 17 22 21 21 25 28 31 32 23 21 21 19 16 16 18 20 23
21 23 26 27 28 28 30 29 27 27 23 24 26 29 30 32 31 32 24 19 16 5 18 17 18 16 6 21 28 24 15 10 12 15 18 20 20 22
24 26 26 26 26 28 26 27 26 29 23 23 23 24 25 25 27 29 31 29 17 17 18 19 14 19 20 13 14 17 13 10 11 16 19 22 20 16
26 22 24 24 23 23 22 21 22 20 24 21 20 20 22 22 24 26 28 30 30 27 19 24 20 22 17 9 9 16 12 17 17 19 21 22 21 19
19 17 19 19 19 18 17 18 17 16 16 16 19 20 22 24 23 23 26 24 26 26 29 30 29 25 26 18 9 11 18 12 18 13 13 17 18 18
16 15 19 18 16 16 19 17 15 14 14 17 18 21 19 18 19 23 20 24 21 19 26 28 32 33 23 25 22 19 19 9 7 10 10 10 11 12
13 13 19 21 19 20 21 21 20 20 18 17 15 12 10 13 16 17 18 17 14 13 16 22 27 31 29 23 18 22 20 15 13 9 4 3 6 8
12 13 16 17 16 17 18 20 20 22 21 19 16 11 9 8 9 13 15 15 14 15 16 18 17 12 6 6 14 13 14 10 9 6 3 5 3 4
14 15 15 17 17 18 19 19 19 22 22 19 17 15 14 11 10 13 14 13 11 10 9 13 13 8 4 4 3 4 7 9 13 9 5 4 5 3
16 14 16 17 18 18 20 20 23 24 23 23 20 18 17 15 12 8 1 1 5 4 6 5 5 3 0 3 3 4 4 11 13 12 13 13 12 8
17 16 18 18 19 20 21 22 24 23 23 23 23 21 17 13 13 13 9 8 6 5 6 7 4 1 6 9 6 7 12 4 4 9 16 13 6 5
18 18 19 19 20 21 21 22 22 25 25 24 23 20 18 15 12 9 9 8 7 8 11 11 8 6 6 4 3 8 14 20 16 15 12 3 5 3
18 18 19 20 21 21 22 22 22 22 22 21 19 18 17 15 12 11 10 9 9 10 12 12 10 11 7 10 10 10 13 14 14 15 12 11 7 5

GFSNE_925_spd_015.txt.gz
Wind_Speed
6 7 8 8 12 13 15 12 12 11 12 20 22 17 16 16 15 15 15 15 18 19 20 17 17 13 14 13 15 18 19 18 12 12 20 17 19 26
8 11 12 13 15 15 18 14 15 19 13 21 22 21 20 21 21 20 21 22 23 26 20 16 13 13 11 13 16 15 17 16 12 12 14 17 18 20
9 10 12 13 14 14 14 15 19 19 14 24 22 21 24 24 23 24 24 23 22 21 20 20 21 16 19 15 12 18 18 17 19 17 17 20 20 19
12 13 15 15 14 13 13 16 17 18 20 21 24 23 24 24 23 22 22 24 24 25 26 27 26 28 22 23 21 14 17 19 19 20 17 17 24 22
14 13 12 11 14 15 18 20 22 23 24 25 26 27 26 25 27 28 28 28 30 29 31 32 30 31 29 26 27 25 18 22 24 20 20 19 17 22
13 15 16 17 19 20 21 22 22 22 23 23 25 26 25 25 26 27 27 27 28 26 28 30 30 29 29 30 28 30 27 22 24 25 22 20 18 15
20 20 20 21 22 23 23 23 23 23 22 22 22 23 22 20 21 23 25 24 25 23 24 25 23 23 26 28 30 30 31 28 24 26 24 22 22 21
22 22 22 21 20 20 20 21 22 24 24 22 22 22 24 23 22 23 23 20 12 20 22 24 21 24 24 24 24 27 28 28 27 26 27 23 25 26
20 22 22 21 20 19 19 19 21 23 25 26 27 28 27 24 22 22 23 24 22 21 18 21 19 21 18 18 20 16 18 21 25 27 27 26 24 25
21 21 20 20 18 18 19 21 22 23 24 26 28 29 28 27 26 26 25 26 25 22 20 16 19 20 19 20 21 22 21 18 16 19 23 25 24 23
19 18 19 21 20 21 22 25 25 26 25 27 30 31 33 33 31 24 23 22 17 22 21 19 20 19 20 23 23 26 26 24 23 17 15 18 19 21
20 19 20 20 19 19 20 23 23 24 23 19 22 24 25 30 32 33 28 22 19 14 21 19 18 14 9 11 14 14 18 24 26 24 19 18 18 17
21 21 18 17 15 19 19 19 20 21 21 21 20 21 19 20 21 22 27 28 24 22 21 13 14 14 13 13 8 8 6 9 20 21 18 15 12 10
20 18 15 12 15 16 13 14 17 16 14 14 15 16 17 19 21 21 22 25 26 25 22 14 20 18 16 14 10 6 5 7 10 14 13 11 10 10
17 13 11 14 13 12 12 13 12 11 11 11 12 13 13 15 16 17 20 22 24 24 24 22 18 17 16 15 11 10 9 7 8 9 10 11 12 12
15 8 10 11 10 11 12 12 12 12 11 10 11 12 11 9 8 8 11 12 15 14 19 21 24 24 18 17 17 15 12 9 3 7 7 7 10 13
9 7 9 12 13 15 14 13 13 13 13 12 11 11 11 9 6 4 7 8 11 10 11 12 17 20 19 16 12 17 17 16 14 14 12 12 11 10
7 9 10 11 14 15 16 15 15 16 16 14 13 12 12 11 7 3 4 6 7 8 9 8 10 11 13 12 20 19 16 15 14 13 12 12 12 9
10 10 10 12 12 13 15 15 15 16 15 14 14 14 13 12 11 6 3 4 6 7 7 6 9 11 7 8 4 8 12 13 12 10 10 10 9 6
11 11 11 12 12 13 14 14 15 16 16 15 15 14 14 11 10 10 8 4 2 1 2 1 2 5 5 3 2 1 4 6 9 9 8 6 4 6
12 12 12 12 12 12 14 14 14 15 16 16 15 15 14 12 10 9 7 7 4 3 4 3 3 1 1 4 4 3 8 4 4 4 6 5 5 3
12 12 13 12 13 13 13 14 15 15 16 16 16 15 14 12 11 9 9 7 6 5 5 4 3 2 1 2 4 5 4 5 7 7 6 2 0 1
12 12 12 12 13 13 13 13 14 15 15 15 15 15 14 13 11 9 8 7 6 5 4 3 4 5 5 5 5 4 6 5 4 4 6 3 1 2